Location: Unspecified
(0.0000°N, 0.0000°E)
Time: 08:28:58
(UTC+02:00)

OPAL - Visible Passes

Search period start: 21 August 2017 00:00
Search period end: 31 August 2017 00:00
Orbit: 743 x 796 km, 100.2° (Epoch: 20 August)

Date Brightness Start Highest point End Pass type
(mag) Time Alt. Az. Time Alt. Az. Time Alt. Az.
21 Aug 10.4 07:31:47 10° ENE 07:34:33 15° ESE 07:37:19 10° SE visible
21 Aug 10.4 21:42:29 10° SW 21:44:55 13° WSW 21:47:19 10° WNW visible
22 Aug 9.1 21:04:51 10° S 21:09:36 37° WSW 21:14:17 10° NW visible
23 Aug 7.5 20:29:03 10° SSE 20:34:14 80° ENE 20:39:20 10° N visible
24 Aug 10.8 07:25:45 10° E 07:27:03 11° ESE 07:28:20 10° ESE visible
24 Aug 10.2 21:34:01 10° SSW 21:37:25 18° WSW 21:40:48 10° WNW visible
25 Aug 8.5 20:57:06 10° S 21:02:06 49° WSW 21:06:59 10° NNW visible
26 Aug 7.6 20:21:38 10° SSE 20:26:43 60° ENE 20:31:43 10° N visible
27 Aug 9.8 21:25:53 10° SSW 21:29:56 23° WSW 21:33:55 10° NW visible
28 Aug 8.0 20:49:28 10° S 20:54:34 65° WSW 20:59:36 10° NNW visible
29 Aug 10.6 21:56:38 10° WSW 21:57:44 11° WSW 21:58:49 10° W visible
30 Aug 9.4 21:17:56 10° SSW 21:22:25 30° WSW 21:26:50 10° NW visible
